TimeCST,TemperatureF,Dew PointF,Humidity,Sea Level PressureIn,VisibilityMPH,Wind Direction,Wind SpeedMPH,Gust SpeedMPH,PrecipitationIn,Events,Conditions,WindDirDegrees,DateUTC
12:35 AM,44.6,24.8,46,30.28,10.0,Calm,Calm,-,N/A,,Clear,0,2013-11-11 06:35:00
12:55 AM,44.6,24.8,46,30.28,10.0,Calm,Calm,-,N/A,,Clear,0,2013-11-11 06:55:00
1:15 AM,42.8,24.8,49,30.28,10.0,NE,3.5,-,N/A,,Clear,50,2013-11-11 07:15:00
1:35 AM,37.4,26.6,65,30.28,10.0,Calm,Calm,-,N/A,,Clear,0,2013-11-11 07:35:00
1:55 AM,37.4,24.8,60,30.28,10.0,Calm,Calm,-,N/A,,Clear,0,2013-11-11 07:55:00
2:15 AM,33.8,26.6,75,30.28,10.0,Calm,Calm,-,N/A,,Clear,0,2013-11-11 08:15:00
2:35 AM,37.4,26.6,65,30.28,10.0,Calm,Calm,-,N/A,,Clear,0,2013-11-11 08:35:00
2:55 AM,33.8,26.6,75,30.28,10.0,Calm,Calm,-,N/A,,Clear,0,2013-11-11 08:55:00
3:15 AM,33.8,26.6,75,30.28,10.0,Calm,Calm,-,N/A,,Clear,0,2013-11-11 09:15:00
3:35 AM,32.0,26.6,80,30.28,10.0,Calm,Calm,-,N/A,,Clear,0,2013-11-11 09:35:00
3:55 AM,32.0,26.6,80,30.28,10.0,Calm,Calm,-,N/A,,Clear,0,2013-11-11 09:55:00
4:15 AM,30.2,24.8,80,30.28,10.0,Calm,Calm,-,N/A,,Clear,0,2013-11-11 10:15:00
4:35 AM,30.2,24.8,80,30.28,10.0,Calm,Calm,-,N/A,,Clear,0,2013-11-11 10:35:00
4:55 AM,30.2,24.8,80,30.29,10.0,Calm,Calm,-,N/A,,Clear,0,2013-11-11 10:55:00
5:15 AM,30.2,24.8,80,30.28,10.0,Calm,Calm,-,N/A,,Clear,0,2013-11-11 11:15:00
5:35 AM,30.2,24.8,80,30.28,10.0,Calm,Calm,-,N/A,,Clear,0,2013-11-11 11:35:00
5:55 AM,30.2,24.8,80,30.28,10.0,Calm,Calm,-,N/A,,Clear,0,2013-11-11 11:55:00
6:15 AM,30.2,24.8,80,30.28,10.0,Calm,Calm,-,N/A,,Clear,0,2013-11-11 12:15:00
6:35 AM,30.2,24.8,80,30.30,10.0,Calm,Calm,-,N/A,,Clear,0,2013-11-11 12:35:00
6:55 AM,30.2,26.6,86,30.30,10.0,Calm,Calm,-,N/A,,Clear,0,2013-11-11 12:55:00
7:15 AM,33.8,28.4,81,30.30,10.0,Calm,Calm,-,N/A,,Clear,0,2013-11-11 13:15:00
7:35 AM,37.4,30.2,75,30.30,10.0,Calm,Calm,-,N/A,,Clear,0,2013-11-11 13:35:00
7:55 AM,42.8,32.0,66,30.31,10.0,Calm,Calm,-,N/A,,Clear,0,2013-11-11 13:55:00
8:15 AM,44.6,28.4,53,30.31,10.0,Calm,Calm,-,N/A,,Clear,0,2013-11-11 14:15:00
8:35 AM,48.2,26.6,43,30.31,10.0,ENE,3.5,-,N/A,,Clear,70,2013-11-11 14:35:00
8:55 AM,50.0,26.6,40,30.31,10.0,Calm,Calm,-,N/A,,Clear,0,2013-11-11 14:55:00
9:15 AM,51.8,24.8,35,30.31,10.0,SE,3.5,-,N/A,,Clear,140,2013-11-11 15:15:00
9:35 AM,53.6,24.8,33,30.31,10.0,SSE,3.5,-,N/A,,Clear,160,2013-11-11 15:35:00
9:55 AM,55.4,24.8,31,30.30,10.0,Calm,Calm,-,N/A,,Clear,0,2013-11-11 15:55:00
10:15 AM,57.2,24.8,29,30.30,10.0,Calm,Calm,-,N/A,,Clear,0,2013-11-11 16:15:00
10:35 AM,57.2,21.2,25,30.30,10.0,South,3.5,-,N/A,,Clear,180,2013-11-11 16:35:00
10:55 AM,60.8,19.4,20,30.29,10.0,Calm,Calm,-,N/A,,Clear,0,2013-11-11 16:55:00
11:15 AM,60.8,19.4,20,30.28,10.0,Calm,Calm,-,N/A,,Clear,0,2013-11-11 17:15:00
11:35 AM,62.6,19.4,19,30.26,10.0,South,3.5,-,N/A,,Clear,180,2013-11-11 17:35:00
11:55 AM,64.4,15.8,15,30.25,10.0,SSW,3.5,-,N/A,,Clear,200,2013-11-11 17:55:00
12:15 PM,64.4,10.4,12,30.24,10.0,Calm,Calm,-,N/A,,Clear,0,2013-11-11 18:15:00
12:35 PM,64.4,14.0,14,30.23,10.0,WNW,4.6,-,N/A,,Clear,290,2013-11-11 18:35:00
12:55 PM,66.2,12.2,12,30.22,10.0,Calm,Calm,-,N/A,,Clear,0,2013-11-11 18:55:00
1:15 PM,66.2,10.4,11,30.21,10.0,WSW,3.5,-,N/A,,Clear,240,2013-11-11 19:15:00
1:35 PM,66.2,6.8,10,30.21,10.0,WSW,3.5,-,N/A,,Clear,240,2013-11-11 19:35:00
1:55 PM,66.2,14.0,13,30.20,10.0,Calm,Calm,-,N/A,,Clear,0,2013-11-11 19:55:00
2:15 PM,66.2,12.2,12,30.19,10.0,Calm,Calm,-,N/A,,Clear,0,2013-11-11 20:15:00
2:35 PM,66.2,15.8,14,30.19,10.0,Variable,4.6,-,N/A,,Clear,0,2013-11-11 20:35:00
2:55 PM,66.2,15.8,14,30.19,10.0,Calm,Calm,-,N/A,,Clear,0,2013-11-11 20:55:00
3:15 PM,66.2,15.8,14,30.19,10.0,WSW,3.5,-,N/A,,Clear,240,2013-11-11 21:15:00
3:35 PM,64.4,10.4,12,30.18,10.0,Calm,Calm,-,N/A,,Clear,0,2013-11-11 21:35:00
3:55 PM,62.6,12.2,14,30.18,10.0,South,3.5,-,N/A,,Scattered Clouds,180,2013-11-11 21:55:00
4:15 PM,64.4,14.0,14,30.17,10.0,Calm,Calm,-,N/A,,Overcast,0,2013-11-11 22:15:00
4:35 PM,62.6,15.8,16,30.18,10.0,Calm,Calm,-,N/A,,Overcast,0,2013-11-11 22:35:00
4:55 PM,60.8,17.6,19,30.18,10.0,Calm,Calm,-,N/A,,Overcast,0,2013-11-11 22:55:00
5:15 PM,57.2,26.6,31,30.18,10.0,Calm,Calm,-,N/A,,Mostly Cloudy,0,2013-11-11 23:15:00
5:35 PM,55.4,24.8,31,30.18,10.0,Calm,Calm,-,N/A,,Mostly Cloudy,0,2013-11-11 23:35:00
5:55 PM,53.6,24.8,33,30.19,10.0,Calm,Calm,-,N/A,,Overcast,0,2013-11-11 23:55:00
6:15 PM,51.8,26.6,38,30.19,10.0,Calm,Calm,-,N/A,,Overcast,0,2013-11-12 00:15:00
6:35 PM,51.8,30.2,44,30.19,10.0,Calm,Calm,-,N/A,,Overcast,0,2013-11-12 00:35:00
6:55 PM,51.8,30.2,44,30.19,10.0,Calm,Calm,-,N/A,,Overcast,0,2013-11-12 00:55:00
7:15 PM,51.8,28.4,41,30.19,10.0,Calm,Calm,-,N/A,,Overcast,0,2013-11-12 01:15:00
7:35 PM,51.8,30.2,44,30.19,10.0,Calm,Calm,-,N/A,,Overcast,0,2013-11-12 01:35:00
7:55 PM,50.0,32.0,50,30.19,10.0,Calm,Calm,-,N/A,,Mostly Cloudy,0,2013-11-12 01:55:00
8:15 PM,48.2,30.2,50,30.19,10.0,Calm,Calm,-,N/A,,Mostly Cloudy,0,2013-11-12 02:15:00
8:35 PM,48.2,33.8,58,30.20,10.0,Calm,Calm,-,N/A,,Mostly Cloudy,0,2013-11-12 02:35:00
8:55 PM,48.2,28.4,46,30.20,10.0,Calm,Calm,-,N/A,,Mostly Cloudy,0,2013-11-12 02:55:00
9:15 PM,46.4,32.0,57,30.20,10.0,Calm,Calm,-,N/A,,Mostly Cloudy,0,2013-11-12 03:15:00
9:35 PM,46.4,30.2,53,30.20,10.0,Calm,Calm,-,N/A,,Mostly Cloudy,0,2013-11-12 03:35:00
9:55 PM,50.0,32.0,50,30.20,10.0,Calm,Calm,-,N/A,,Overcast,0,2013-11-12 03:55:00
10:15 PM,48.2,35.6,62,30.20,10.0,Calm,Calm,-,N/A,,Overcast,0,2013-11-12 04:15:00
10:35 PM,48.2,35.6,62,30.20,10.0,Calm,Calm,-,N/A,,Overcast,0,2013-11-12 04:35:00
10:55 PM,50.0,33.8,54,30.20,10.0,Calm,Calm,-,N/A,,Overcast,0,2013-11-12 04:55:00
11:15 PM,48.2,33.8,58,30.20,10.0,Calm,Calm,-,N/A,,Overcast,0,2013-11-12 05:15:00
11:35 PM,48.2,30.2,50,30.20,10.0,Calm,Calm,-,N/A,,Overcast,0,2013-11-12 05:35:00
11:55 PM,48.2,33.8,58,30.20,10.0,Calm,Calm,-,N/A,,Overcast,0,2013-11-12 05:55:00